WESTFORD NEEDLES, 628

Orbit data source: Space-Track

WESTFORD NEEDLES, 628 is space debris in LEO originally from a launch on Thu, 09 May 1963 UTC launched from the Air Force Western Test Range (AFWTR). Debris objects in space refer to the collection of defunct objects orbiting the Earth. Examples of debris include non-operational satellites, rocket bodies, and fragments generated from explosions, collisions, or faulty payload assembly.

Loading next visibility...
Identifier
628, 1963-014F
Orbit
LEO
Country
Flag of USUS
Related business
Manufacturer
Unknown
Mission
Spacecraft
Bus & Motor
Unknown
Mass
~10 kg wet, ~10 kg dry
Launch date (UTC)
1963-05-09 (63 years ago)
Launch vehicle
Unknown
Launch site
Air Force Western Test Range (AFWTR)
Object type
Payload
Rocket body
Debris
Shape & HBR
Unknown
Radar Cross Section
Medium (>0.1 m² and <1 m²)

Expand to show TLE details & history
Last TLE update: 1 day ago

TLE from 1 day ago
0 WESTFORD NEEDLES
1 00628U 63014F   25351.10195311  .00000003  00000-0  00000-0 0  9990
2 00628  87.3349 220.4487 0017752 320.5049  39.4510  8.63371981973247
Epoch: 2025-12-17T02:26Z
TLE epoch observation values (Epoch: 2025-12-17T02:26:48.748Z)
Latitude
-0.00001°
Longitude
97.76895°
Altitude
3,647.283 km
Speed
6.31 km/s
True Right ascension
14h 41m 47s
True Declination
0° 00' 00"
Sunlit
Object was in daylight at epoch
Visualization orbit readout
Latitude
Unknown
Longitude
Unknown
Altitude
Unknown
Speed
Unknown
Apparent Right ascension
Unknown
Apparent Declination
Unknown
Sunlit
N/A
Visualization observer readout
Local Sidereal Time
06:59:52
Azimuth
Unknown
Elevation
Unknown
Doppler factor
Unknown
Orbital elements
Apogee altitude
3,674.487 km
Perigee altitude
3,638.859 km
Semi-major axis
10,034.81 km
Eccentricity
0.00178
Inclination
87.3349°
RAAN
220.4487°
Arg. of periapsis
320.5049°
True anomaly
39.58048°
Mean anomaly
39.451°
Eccentric anomaly
39.51572°
Mean motion
2.15913 °/min
Orbital period
166.73 mins
BSTAR
0
Loading maneuver chart data...
Computing Atmospheric mass density...

Documentation

Showing up to 5 results
|